Погода в Исаклах

Россия / Самарская область     54°07′50″N   51°32′12″E
темп.,
°C
ветер,
м/с
пор.,
м/с
влажн.,
%
обл.,
%
осадки,
мм/ч
давл.,
гПа
погр.,
м
18 апреля, вс
вс1801:00+7св410580 0.0 1021223
04:00+5св38630 0.0 1021167
07:00+6св49611 0.0 1020256
10:00+11св57423 0.0 1020709
13:00+13св56323 0.0 10201275
16:00+14св67340 0.0 10201669
19:00+12св610465 0.0 1019398
22:00+7всв713625 0.0 1022595
19 апреля, пн
пн1901:00+5всв6126814 0.0 1023520
04:00+3всв7136155 0.0 1025530
07:00+2всв8136046 0.0 1025611
10:00+6в8105168 0.0 10261180
13:00+6в81057100 0.0 10271178
16:00+7в7953100 0.0 10271410
19:00+7в694896 0.0 1027901
22:00+5в7134982 0.0 1028568
20 апреля, вт
вт2001:00+2в612511 0.0 1030405
04:000вюв512520 0.0 1031376
07:000вюв611490 0.0 1033583
10:00+4вюв79330 0.0 10331078
13:00+8вюв78270 0.0 10321337
16:00+9вюв78260 0.0 10301353
19:00+7юв593537 0.0 1030392
22:00+3вюв3947100 0.0 1030195
21 апреля, ср
ср2101:00+2вюв41152100 0.0 1030250
04:00+1юв61451100 0.0 1030407
07:00+2юв7154991 0.0 1030642
10:00+6юв101434100 0.0 1028875
13:00+10ююв101327100 0.0 10271197
16:00+10ююв81333100 0.0 10261268
19:00+8ююв71343100 0.1 10261003
22:00+7ююв61346100 0.1 1026848
22 апреля, чт
чт2201:00+6ю71256100 0.0 10261053
04:00+3ююв81496100 1.2 1027771
07:00+3ююв71296100 1.6 1028628
10:00+3ююв61196100 2.0 1028559
13:00+4ююв61092100 0.2 1029629
16:00+5ююв61084100 0.3 1029577
19:00+4ююв61093100 0.0 1030546
22:00+3ююв5897100 0.1 1030506